Weather History for KDYB - February, 2013

Change the Weather History Date:

Saturday, February 16, 2013

  Actual Average (KCHS) Record (KCHS)
Temperature  
Mean Temperature 44 °F 52 °F  
Max Temperature 50 °F 63 °F 87 °F (1989)
Min Temperature 35 °F 41 °F 19 °F (1991)
Degree Days  
Heating Degree Days 22 13  
Month to date heating degree days 233  
Since 1 July heating degree days 1492  
Cooling Degree Days 0 0  
Month to date cooling degree days 0  
Year to date cooling degree days 2  
Moisture  
Dew Point 38 °F    
Average Humidity 90    
Maximum Humidity 100    
Minimum Humidity 66    
Precipitation  
Precipitation 0.00 in 0.11 in 3.02 in (1998)
Month to date precipitation 1.70  
Year to date precipitation 5.41  
Sea Level Pressure  
Sea Level Pressure 29.91 in    
Wind  
Wind Speed 5 mph (NNW)    
Max Wind Speed 18 mph    
Max Gust Speed 26 mph    
Visibility 10 miles    
Events Rain    
T = Trace of Precipitation, MM = Missing Value Source: NWS Daily Summary

Daily Weather History Graph

Daily Weather History Graph

Search for Another Location

Airport or City:

Trip Planner

Search our weather history database for the weather conditions in past years. The results will help you decide how hot, cold, wet, or windy it might be!

Date:

Astronomy

Feb. 16, 2013 Rise Set
Actual Time 7:03 AM EST 6:07 PM EST
Civil Twilight 6:38 AM EST 6:32 PM EST
Nautical Twilight 6:09 AM EST 7:01 PM EST
Astronomical Twilight 5:40 AM EST 7:30 PM EST
Moon 10:38 AM EST (2/16) No Moon Set
Length of Visible Light 11h 54m
Length of Day
11h 04m
Waxing Crescent, 39% of the Moon is Illuminated
Feb 16
Waxing Crescent
Feb 17
First Quarter
Feb 25
Full
Mar 4
Last Quarter
Mar 11
New

Hourly Weather History & Observations

Time (EST) Temp. Windchill Dew Point Humidity Pressure Visibility Wind Dir Wind Speed Gust Speed Precip Events Conditions
6:15 AM 37.4 °F - 37.4 °F 100% 29.90 in 10.0 mi Calm Calm - N/A   Clear
6:35 AM 37.4 °F - 37.4 °F 100% 29.89 in 10.0 mi Calm Calm - N/A   Clear
6:55 AM 37.4 °F - 37.4 °F 100% 29.89 in 10.0 mi Calm Calm - N/A   Clear
7:15 AM 37.4 °F - 37.4 °F 100% 29.89 in 10.0 mi Calm Calm - N/A   Clear
7:35 AM 41.0 °F 38.0 °F 41.0 °F 100% 29.89 in 7.0 mi WNW 4.6 mph - N/A   Clear
7:55 AM 41.0 °F 38.0 °F 41.0 °F 100% 29.89 in 10.0 mi NNW 4.6 mph - N/A   Clear
8:15 AM 42.8 °F 38.6 °F 42.8 °F 100% 29.89 in 10.0 mi North 6.9 mph - N/A   Clear
8:35 AM 42.8 °F 37.5 °F 41.0 °F 93% 29.89 in 10.0 mi North 9.2 mph - N/A   Clear
8:55 AM 44.6 °F 40.7 °F 41.0 °F 87% 29.89 in 10.0 mi North 6.9 mph - N/A   Clear
9:15 AM 46.4 °F 41.1 °F 41.0 °F 81% 29.90 in 10.0 mi North 11.5 mph - N/A   Clear
9:35 AM 46.4 °F 41.9 °F 41.0 °F 81% 29.89 in 10.0 mi North 9.2 mph 17.3 mph N/A   Clear
9:55 AM 48.2 °F - 41.0 °F 76% 29.89 in 10.0 mi North 10.4 mph - N/A   Clear
10:15 AM 50.0 °F - 39.2 °F 66% 29.88 in 10.0 mi North 9.2 mph - N/A   Clear
10:35 AM 50.0 °F - 39.2 °F 66% 29.89 in 10.0 mi NNE 8.1 mph - N/A   Clear
1:15 PM 42.8 °F 36.6 °F 37.4 °F 81% 29.90 in 10.0 mi NNW 11.5 mph 18.4 mph N/A Rain Light Rain
1:35 PM 41.0 °F 35.2 °F 39.2 °F 93% 29.90 in 7.0 mi WNW 9.2 mph - N/A Rain Rain
1:55 PM 39.2 °F 32.0 °F 39.2 °F 100% 29.91 in 10.0 mi WNW 11.5 mph 18.4 mph N/A Rain Rain
2:15 PM 37.4 °F 32.1 °F 37.4 °F 100% 29.92 in 10.0 mi NW 6.9 mph - N/A Rain Light Rain
2:35 PM 37.4 °F 31.4 °F 37.4 °F 100% 29.91 in 10.0 mi NW 8.1 mph - N/A Rain Light Rain
2:55 PM 37.4 °F 32.8 °F 37.4 °F 100% 29.89 in 10.0 mi North 5.8 mph - N/A Rain Light Rain
3:15 PM 37.4 °F 34.9 °F 37.4 °F 100% 29.86 in 10.0 mi ENE 3.5 mph - N/A   Overcast
3:35 PM 39.2 °F 37.0 °F 37.4 °F 93% 29.86 in 10.0 mi NNW 3.5 mph - N/A   Overcast
3:55 PM 39.2 °F - 37.4 °F 93% 29.87 in 10.0 mi Calm Calm - N/A   Overcast
4:15 PM 41.0 °F 37.1 °F 41.0 °F 100% 29.87 in 10.0 mi WNW 5.8 mph - N/A   Mostly Cloudy
8:15 PM 41.0 °F 32.2 °F 33.8 °F 76% 29.95 in 10.0 mi WNW 18.4 mph 26.5 mph N/A   Scattered Clouds
8:35 PM 39.2 °F 31.6 °F 32.0 °F 75% 29.96 in 10.0 mi WNW 12.7 mph 25.3 mph N/A   Scattered Clouds
9:15 PM 37.4 °F 29.8 °F 32.0 °F 81% 29.99 in 10.0 mi NW 11.5 mph 18.4 mph N/A   Scattered Clouds
9:35 PM 37.4 °F 30.3 °F 32.0 °F 81% 30.00 in 10.0 mi WNW 10.4 mph - N/A   Scattered Clouds
10:55 PM 35.6 °F 29.2 °F 32.0 °F 87% 30.04 in 10.0 mi NW 8.1 mph 18.4 mph N/A   Overcast